SCP
0 0 0 0 0 0 0 0 -0 0 0 0 0 0 0 0 0 0 0 0 0 0 0 0 1 1 1 0 0 0 0 0 0 0 0 0 0 0 0 0 0 0 0 0 0 0 0 0 0
0 0 0 0 0 0 0 0 0 0 0 0 0 0 0 0 0 0 0 0 0 0 0 1 1 1 1 0 0 0 0 0 0 0 0 0 0 0 0 0 0 0 0 0 0 0 0 0 0
0 0 0 0 0 0 0 0 0 0 0 0 0 0 0 0 0 0 0 0 0 1 1 1 1 1 1 1 0 0 0 0 0 0 0 0 0 0 0 0 0 0 0 0 0 0 0 0 0
0 0 -0 0 0 0 0 0 0 0 0 0 0 0 0 0 0 0 0 0 0 1 1 1 1 1 1 1 0 0 0 0 0 0 0 0 0 0 0 0 0 0 0 0 0 0 0 0 0
0 0 0 0 0 0 0 0 0 0 0 0 0 0 0 0 0 0 0 0 1 1 1 1 1 1 1 1 0 0 0 0 0 0 0 0 0 0 0 0 0 0 0 0 0 0 0 0 0
0 0 0 0 0 0 0 0 0 0 0 0 0 0 0 0 0 0 0 0 1 1 1 1 1 1 1 1 1 1 1 1 1 1 1 1 0 0 0 0 0 0 0 0 0 0 0 0 0
0 0 0 0 0 0 0 0 0 0 0 0 0 0 0 0 0 0 0 1 1 1 1 1 1 1 1 1 1 1 1 1 1 1 1 1 1 1 0 0 0 0 0 0 0 0 0 0 0
0 0 0 0 0 0 0 0 0 0 0 0 0 0 0 0 0 1 1 1 1 1 1 1 1 1 1 1 1 1 1 1 1 1 1 1 1 1 1 0 0 0 0 0 0 0 0 0 0
0 0 0 0 0 0 0 0 0 0 0 0 0 0 0 0 1 1 1 1 1 1 1 1 1 1 1 1 1 1 1 1 1 1 1 1 1 1 1 0 0 0 0 0 0 0 0 0 0
0 0 0 0 0 0 0 0 0 0 0 0 0 0 0 1 1 1 1 1 1 1 1 1 1 1 1 1 1 1 1 1 1 1 1 1 1 1 1 1 0 0 0 0 0 0 0 0 0
0 0 0 0 0 0 0 0 0 0 0 0 0 0 1 1 1 2 2 2 1 1 1 1 1 1 1 1 1 1 2 2 2 1 1 1 1 1 1 1 1 1 1 1 1 1 1 0 0
0 0 0 0 0 0 0 0 0 0 0 0 0 1 1 2 2 2 2 2 1 1 1 1 1 1 1 1 1 2 2 2 2 1 1 1 1 1 1 1 1 1 1 1 1 1 0 0 0
0 0 0 0 0 0 0 0 0 0 0 1 1 1 2 2 2 2 1 1 1 1 1 1 1 1 1 1 1 1 1 1 1 1 1 1 1 1 1 1 1 1 1 1 1 0 0 0 0
0 0 0 0 0 0 0 0 0 0 1 1 2 2 2 1 1 1 1 1 1 1 1 1 1 1 1 1 1 1 1 1 1 -7 -13 -7 1 1 1 1 1 0 0 0 0 0 0 0 0
0 0 0 0 0 0 0 0 0 0 1 1 1 1 1 1 1 1 1 1 1 1 1 1 1 1 1 0 0 1 1 1 1 -13 -26 -13 1 1 0 0 0 0 0 0 0 0 0 0 0
0 0 0 0 0 0 0 0 0 0 0 1 1 1 1 1 1 1 1 1 1 1 1 1 1 1 0 0 0 0 0 1 1 -7 -13 -7 1 1 0 0 0 0 0 0 0 0 0 0 0
0 0 0 0 0 0 0 0 0 0 0 0 0 0 0 0 0 0 0 0 0 0 0 0 0 0 0 0 0 0 0 0 0 1 1 1 1 1 0 0 0 0 0 0 0 0 0 0 0
0 0 0 0 0 0 0 0 0 0 0 0 0 0 0 0 0 0 0 0 0 0 0 0 0 0 0 0 0 0 0 0 0 0 0 0 1 1 0 0 0 0 0 0 0 0 0 0 0
0 0 0 0 0 0 0 0 0 0 0 0 0 0 0 0 0 0 0 0 0 -0 -0 -0 0 -0 -0 -0 -0 0 0 0 0 0 0 0 0 0 0 0 0 0 0 0 0 0 0 0 0
0 0 0 0 0 0 0 0 0 0 0 0 0 0 0 0 0 0 0 0 0 0 -0 -0 -0 -0 -0 -0 -0 -0 0 0 0 0 0 0 0 0 0 0 0 0 0 0 0 0 0 0 0
0 0 0 0 0 0 0 0 0 0 0 0 0 0 0 0 0 0 0 0 0 0 0 -0 -0 -0 -0 -0 -0 -0 -0 -0 -0 -0 0 0 0 0 0 0 0 0 0 0 0 0 0 0 0
0 0 0 0 0 0 0 0 0 0 0 0 0 0 0 0 0 0 0 0 0 0 0 0 -0 0 -0 -0 -0 -0 -0 -0 -0 -0 -0 0 0 0 0 0 0 0 0 0 0 0 0 0 0
0 0 0 0 0 0 0 0 0 0 0 0 -0 -0 -0 -0 -0 -0 -0 0 0 0 -0 -0 -0 -0 0 0 0 0 0 0 0 0 0 0 0 0 0 0 0 0 0 0 0 0 0 0 0
0 0 0 0 0 0 0 0 0 0 0 0 0 0 -0 -0 -0 -0 -0 -0 0 0 0 0 0 0 0 0 0 0 0 0 0 0 0 0 0 0 0 0 0 0 0 0 0 0 0 0 0
0 0 0 0 0 0 0 0 0 0 0 0 0 0 0 -0 -0 -0 0 0 0 0 0 0 0 0 0 0 0 0 0 0 0 0 0 0 0 0 0 0 0 0 0 0 0 0 0 0 0
0 0 0 0 0 0 0 0 0 0 0 0 0 0 0 0 0 0 0 0 0 0 0 0 0 0 0 0 0 0 0 0 0 0 0 0 0 0 0 0 0 0 0 0 0 0 0 0 0
0 0 0 0 0 0 0 0 0 0 0 0 0 0 0 0 0 0 0 0 0 0 0 0 0 0 0 0 0 0 0 0 0 0 0 0 0 0 0 0 0 0 0 0 0 0 0 0 0
0 0 -0 0 0 0 0 0 0 0 0 0 0 0 0 0 0 0 0 0 0 0 0 0 0 0 0 0 0 0 0 0 0 0 0 0 0 0 0 0 0 0 0 0 0 0 0 0 0
0 0 0 0 0 0 0 0 0 0 0 0 0 0 0 0 0 0 0 0 0 0 0 0 0 0 0 0 0 0 0 0 0 0 0 0 0 0 0 0 0 0 0 0 0 0 0 0 0
0 0 0 0 0 0 0 0 0 0 0 0 0 0 0 0 0 0 0 0 0 0 0 0 0 0 0 0 0 0 0 0 0 0 0 0 0 0 0 0 0 0 0 0 0 0 0 0 0
Wind_Speed
14 9 3 2 2 1 4 4 2 3 1 1 2 3 3 4 5 4 1 9 13 13 13 16 18 18 18 17 17 17 17 17 16 16 15 15 15 14 14 13 12 11 11 10 9 10 10 9 9
7 5 2 2 2 2 5 3 3 3 2 2 2 3 2 1 1 3 4 7 14 14 12 13 19 19 18 17 17 17 16 16 16 16 15 15 14 14 14 14 13 12 11 11 10 9 10 10 9
5 2 3 3 1 3 5 4 4 3 2 2 1 2 2 2 4 6 6 11 13 13 11 14 22 20 18 17 16 16 16 15 15 15 14 14 13 13 13 13 13 12 10 9 9 9 8 8 8
4 3 4 2 4 6 6 6 3 4 3 0 2 2 1 1 7 7 12 14 15 12 10 13 21 20 18 17 16 15 14 13 13 12 12 11 11 11 11 10 10 10 9 8 8 7 7 7 7
3 4 3 2 6 6 5 5 4 3 2 1 2 2 1 2 6 10 14 14 14 11 8 10 19 18 17 16 15 14 13 12 11 10 9 9 8 8 8 8 8 7 7 7 7 8 8 8 8
4 4 3 3 6 6 5 3 2 3 2 1 2 2 1 3 8 10 11 10 9 10 7 7 16 16 15 14 13 12 11 11 10 9 9 8 8 8 8 8 8 8 9 9 9 9 9 9 9
4 4 3 3 5 6 4 2 2 3 3 2 4 3 1 3 5 8 8 8 7 6 6 4 6 9 13 13 13 12 12 11 11 11 10 10 10 10 10 10 10 10 10 11 11 11 11 11 11
5 4 1 3 4 6 4 3 3 3 5 2 3 5 3 5 11 11 11 9 7 6 4 3 3 3 4 6 11 12 12 12 13 13 13 12 12 12 12 10 11 12 12 13 13 13 13 12 12
4 5 2 4 4 6 4 4 4 2 3 3 3 2 4 15 17 14 11 9 6 5 3 4 3 2 2 3 6 9 11 12 13 12 14 12 6 6 7 10 13 14 14 14 15 15 15 13 11
5 4 8 6 4 5 7 5 4 3 4 4 2 5 13 17 16 15 12 10 8 6 4 4 4 3 1 2 2 3 3 4 6 5 6 5 4 5 7 7 15 16 16 16 16 16 15 12 5
5 7 6 6 6 5 5 5 3 2 6 5 1 8 16 16 14 14 12 12 10 8 6 3 2 1 2 3 3 2 2 2 3 5 5 3 3 3 5 3 6 8 11 8 10 10 7 6 6
3 7 6 6 4 3 3 4 4 4 6 7 4 11 15 16 14 14 15 14 12 10 6 4 5 4 6 6 5 5 4 3 3 4 5 4 3 4 5 5 5 5 4 6 6 5 7 7 8
4 6 5 7 8 5 3 8 7 12 11 13 16 15 15 15 15 14 15 14 12 10 6 7 9 8 8 6 5 4 5 4 5 5 6 7 5 6 6 5 5 6 5 6 5 6 7 6 7
5 6 9 9 7 2 12 11 9 11 11 17 19 17 15 14 14 12 12 11 10 10 10 10 9 8 5 5 4 4 4 4 4 5 6 7 6 6 6 5 5 5 5 5 5 5 4 4 4
3 6 9 5 7 1 12 16 12 10 11 17 17 15 14 12 10 8 5 4 4 4 4 4 4 4 5 5 4 4 3 3 3 4 5 6 6 7 6 5 5 5 4 4 3 3 2 2 3
3 4 6 7 12 8 13 10 10 9 10 13 13 12 11 10 9 7 5 4 4 4 3 3 3 2 2 2 2 2 0 0 2 4 4 6 7 7 6 4 4 3 2 3 3 2 2 2 3
4 4 4 6 13 8 11 9 8 9 8 10 10 9 9 8 8 7 7 6 5 4 4 3 3 3 2 2 1 1 1 1 3 3 4 5 7 7 5 4 3 3 3 3 2 2 2 3 3
4 3 3 4 7 11 13 10 8 8 8 9 8 8 8 9 8 7 7 7 6 6 6 5 5 4 4 3 3 3 3 2 3 3 5 6 6 7 6 4 4 4 3 3 2 3 2 2 3
3 2 2 3 3 8 11 10 8 7 8 9 8 7 8 7 7 9 9 10 10 10 9 7 7 7 5 4 4 3 3 4 4 3 5 6 6 7 7 5 5 4 4 4 4 3 3 2 1
3 1 3 4 4 6 7 9 7 7 6 6 6 8 9 9 11 12 11 11 9 8 7 7 7 7 6 4 3 2 3 4 4 4 4 4 5 6 7 7 6 5 4 4 4 3 2 2 2
1 2 3 6 4 4 6 5 4 5 5 6 6 6 7 7 8 8 8 7 7 6 6 5 5 5 5 5 3 3 3 3 3 4 4 4 4 5 5 7 6 6 6 6 6 5 5 3 2
3 3 3 6 6 3 3 3 2 3 2 2 3 4 5 5 5 5 5 4 4 5 5 5 5 5 5 5 4 4 3 3 4 4 5 6 5 4 4 4 6 7 6 6 6 6 4 4 3
2 2 3 3 4 3 2 4 3 4 3 2 2 2 3 4 5 5 5 5 5 5 5 4 4 4 3 3 2 2 1 1 3 3 5 6 6 5 5 3 3 5 6 7 8 7 6 5 5
2 6 7 5 5 3 3 1 2 3 4 5 5 4 4 5 6 6 6 6 7 6 5 5 4 4 4 3 2 1 2 2 2 2 3 3 3 4 6 6 4 3 4 6 8 9 10 7 6
7 7 6 7 6 2 2 1 0 1 3 6 6 5 5 5 6 7 8 8 8 8 8 6 6 6 6 5 5 5 5 4 4 3 2 2 2 2 3 4 4 4 4 5 6 8 9 9 8
3 6 6 2 3 4 3 2 1 0 3 4 4 3 3 5 6 7 8 8 8 9 9 8 8 8 7 7 7 6 6 4 4 5 4 3 3 3 3 3 3 4 5 5 5 6 7 8 9
3 3 3 6 2 2 4 2 4 3 4 3 3 0 3 5 7 7 7 7 8 9 10 9 9 10 10 9 8 8 7 7 7 6 5 4 4 4 4 3 3 3 3 4 5 4 6 6 8
5 5 4 5 2 2 4 3 4 7 5 2 3 3 5 7 8 8 7 7 7 7 8 9 9 10 10 9 8 7 8 8 8 6 7 7 7 6 5 5 4 4 3 3 3 5 5 6 6
6 5 6 4 4 3 2 2 3 3 3 3 3 4 6 8 9 8 7 7 8 8 8 9 9 9 10 10 10 9 10 9 8 8 10 9 8 7 7 6 5 5 5 4 4 4 5 6 6
4 4 3 3 2 2 1 4 2 1 1 1 3 6 7 8 8 8 8 8 8 9 10 10 10 10 11 11 10 10 11 10 9 10 11 10 10 9 8 7 6 6 6 5 6 6 5 6 5
Wind_Direction
136 133 135 138 81 22 266 255 258 301 278 231 138 135 149 166 189 229 8 133 134 144 154 164 162 160 157 156 158 159 157 154 151 150 150 152 155 159 161 162 163 164 164 160 157 161 160 158 159
130 146 129 84 75 336 286 262 266 269 235 217 167 121 107 188 104 109 128 145 144 149 155 162 165 164 162 161 163 164 162 158 156 154 156 158 161 163 165 167 170 169 165 164 164 167 168 167 169
152 149 107 86 158 224 269 263 255 289 295 212 145 99 137 191 161 169 171 152 145 152 157 167 169 169 167 166 167 168 167 163 161 160 162 165 165 165 166 169 174 175 172 173 175 176 177 178 181
133 71 65 69 257 241 241 257 267 303 320 222 128 104 120 198 168 167 152 152 150 154 157 170 171 172 172 171 172 172 170 167 165 166 167 169 169 171 172 174 177 181 184 188 192 194 192 193 195
72 87 55 327 269 264 257 264 252 272 295 350 124 146 186 35 121 137 150 155 154 151 153 171 172 174 175 176 176 175 172 169 170 173 176 176 176 178 182 187 192 195 199 203 206 206 204 203 205
73 74 78 285 280 281 279 284 297 261 262 228 147 167 231 112 127 147 150 150 147 145 142 162 172 175 178 180 181 181 177 174 177 182 185 188 189 192 196 202 207 210 213 214 217 221 220 217 215
124 122 191 246 284 296 292 294 270 273 277 239 168 173 189 138 127 123 113 103 103 116 117 128 158 175 182 185 188 189 189 187 189 191 194 199 205 209 212 213 217 221 225 228 229 232 234 232 231
140 116 233 266 272 282 291 288 263 234 262 260 176 183 198 154 110 95 85 82 89 100 103 94 118 142 167 188 197 200 203 201 201 202 202 206 214 219 224 225 229 232 234 238 239 241 243 243 243
104 83 232 242 248 276 285 280 273 223 256 267 221 189 125 118 111 104 98 94 99 105 83 61 71 84 127 185 211 213 217 216 214 213 213 211 214 223 232 236 236 240 243 244 246 249 251 251 251
107 157 226 231 233 279 292 264 266 269 275 272 273 82 102 117 120 119 119 119 115 109 88 53 48 44 62 214 219 228 229 228 218 211 216 208 197 214 230 243 248 247 247 249 251 253 255 257 253
159 201 237 258 256 265 283 283 272 241 281 274 252 112 120 125 123 120 119 118 112 104 98 77 70 153 214 220 216 216 213 219 214 206 206 202 199 215 232 236 253 257 258 253 252 252 244 239 236
218 242 237 258 258 278 269 306 5 7 332 3 76 123 128 127 124 124 121 118 115 113 121 166 200 211 219 217 213 209 205 204 211 212 204 200 209 219 227 232 234 234 240 246 244 240 239 244 248
242 252 244 242 266 259 28 25 43 21 16 49 68 86 107 111 111 112 119 125 127 130 156 203 211 215 219 220 219 217 212 210 216 217 212 209 219 230 230 231 231 230 230 235 239 243 233 230 239
254 269 277 276 264 178 86 45 42 20 38 63 67 72 81 93 106 114 122 132 143 157 185 208 216 217 224 228 222 227 213 208 219 229 227 221 224 232 233 232 231 235 232 233 230 231 212 205 213
299 303 314 349 341 79 95 52 36 30 51 66 67 69 73 74 78 87 106 146 164 192 213 233 238 228 218 218 217 222 202 186 223 241 237 228 225 230 227 225 226 229 223 218 209 204 178 185 204
348 354 335 355 7 33 80 68 26 25 48 64 62 60 60 54 46 32 12 349 350 346 336 312 302 297 256 231 215 235 210 233 253 253 243 233 227 220 214 214 224 219 198 188 182 171 169 192 204
8 350 334 359 19 44 80 87 36 32 47 57 53 50 47 40 28 12 3 357 355 354 348 335 344 349 319 311 311 321 13 313 272 260 246 236 226 210 197 201 209 192 182 183 180 180 177 192 208
304 324 3 43 23 63 85 88 56 39 52 56 50 43 36 30 14 6 13 14 14 11 7 357 353 354 343 341 344 354 345 300 274 261 247 235 221 202 188 190 192 178 174 186 188 192 193 202 207
261 280 78 93 111 68 81 82 60 49 52 50 40 32 27 20 6 18 20 20 19 16 11 4 1 354 353 349 347 342 321 307 298 270 246 232 217 201 189 187 185 179 187 195 185 175 189 206 164
228 208 96 85 111 101 100 81 67 53 48 40 32 22 15 12 11 13 15 16 16 10 7 7 8 360 354 341 311 285 286 290 285 290 288 257 230 210 199 194 189 185 184 186 183 173 175 196 172
304 199 178 149 106 92 118 82 69 59 47 33 17 7 4 11 5 359 3 1 356 357 355 354 355 351 344 340 331 331 331 322 336 340 334 321 285 251 221 204 193 187 183 188 190 183 176 186 199
291 252 204 156 145 184 179 135 155 133 84 34 354 347 342 341 343 335 333 330 327 323 326 329 332 337 343 354 12 23 9 344 337 330 328 334 333 303 268 238 212 196 189 188 190 188 181 166 185
246 46 75 96 125 82 43 116 162 156 157 191 210 256 281 291 295 293 292 293 295 292 290 290 299 312 326 351 16 37 29 299 297 316 338 350 352 356 352 320 258 222 205 198 187 181 187 182 177
94 68 52 54 69 60 337 101 159 192 178 165 176 197 226 249 265 275 281 285 285 280 271 263 262 267 268 268 251 209 220 252 289 317 335 340 340 350 3 357 338 286 244 217 201 190 188 191 184
57 69 28 11 15 282 309 88 102 191 160 159 170 189 211 231 247 262 270 271 272 275 274 269 266 268 262 261 258 247 242 247 259 272 282 298 311 313 327 345 342 329 294 255 224 202 194 190 189
62 113 139 191 238 291 356 16 311 342 123 127 144 176 217 245 255 262 266 270 274 277 279 277 273 271 266 257 257 255 252 250 253 254 252 258 257 265 274 282 291 308 317 299 245 223 209 196 195
81 74 138 127 133 352 320 341 15 58 76 100 114 133 290 291 291 290 294 295 291 288 284 280 278 277 274 263 257 257 251 244 248 252 249 248 246 251 258 265 272 272 284 304 297 249 228 211 205
72 123 74 84 106 317 320 9 350 341 350 50 49 4 334 323 314 308 308 306 300 292 285 283 275 270 274 277 270 264 256 247 245 249 252 248 247 243 251 256 257 259 247 232 268 283 259 232 223
13 43 78 91 118 139 299 319 348 326 13 41 10 334 315 305 303 298 292 289 291 292 289 281 276 272 273 272 271 273 272 265 248 241 246 247 247 240 235 235 240 248 247 229 216 232 273 258 241
76 56 84 85 29 98 169 264 313 346 72 358 299 292 292 294 295 285 278 283 290 292 291 285 276 268 263 262 262 263 266 269 263 253 249 244 243 242 232 224 225 235 241 231 223 222 227 249 258